Romeoville, IL

3:02 PM CDT on July 23, 2017 (GMT -0500)
Lewis University

Weather History for KLOT - May, 2014

Change the Weather History Date:

Wednesday, May 28, 2014

  Actual Average Record
Temperature  
Mean Temperature 67 °F 64 °F  
Max Temperature 77 °F 75 °F 93 °F (2012)
Min Temperature 56 °F 54 °F 33 °F (1992)
Degree Days  
Heating Degree Days 0 4  
Month to date heating degree days 201 183  
Since 1 July heating degree days 7319 6177  
Cooling Degree Days 2 3  
Month to date cooling degree days 75 44  
Year to date cooling degree days 75 49  
Growing Degree Days 17 (Base 50)    
Moisture  
Dew Point 59 °F    
Average Humidity 79    
Maximum Humidity 100    
Minimum Humidity 51    
Precipitation  
Precipitation 0.09 in 0.13 in 1.63 in (1996)
Month to date precipitation 4.59 3.83  
Year to date precipitation 15.37 14.27  
Sea Level Pressure  
Sea Level Pressure 29.99 in    
Wind  
Wind Speed 8 mph (ENE)    
Max Wind Speed 17 mph    
Max Gust Speed 22 mph    
Visibility 7 miles    
Events Rain    
T = Trace of Precipitation, MM = Missing Value Source: NWS Daily Summary

Daily Weather History Graph

Daily Weather History Graph

Search for Another Location

Airport or City:

Trip Planner

Search our weather history database for the weather conditions in past years. The results will help you decide how hot, cold, wet, or windy it might be!

Date:

Astronomy

May. 28, 2014 Rise Set
Actual Time 5:22 AM CDT 8:17 PM CDT
Civil Twilight 4:49 AM CDT 8:50 PM CDT
Nautical Twilight 4:08 AM CDT 9:32 PM CDT
Astronomical Twilight 3:19 AM CDT 10:20 PM CDT
Moon 5:29 AM CDT (5/28) 8:14 PM CDT (5/28)
Length of Visible Light 16h 00m
Length of Day
14h 54m
Waning Crescent, 0% of the Moon is Illuminated
May 28
Waning Crescent
May 28
New
Jun 5
First Quarter
Jun 12
Full
Jun 19
Last Quarter

Hourly Weather History & Observations

Time (CDT) Temp. Dew Point Humidity Pressure Visibility Wind Dir Wind Speed Gust Speed Precip Events Conditions
12:15 AM 66.2 °F 65.3 °F 97% 29.93 in 7.0 mi NE 5.8 mph - N/A   Overcast
12:35 AM 66.6 °F 65.8 °F 98% 29.95 in 7.0 mi NNW 16.1 mph 21.9 mph N/A   Overcast
12:55 AM 64.6 °F 63.1 °F 95% 29.96 in 4.0 mi North 12.7 mph - N/A   Overcast
1:15 AM 63.9 °F 63.0 °F 97% 29.96 in 3.0 mi NE 6.9 mph - N/A Rain Heavy Rain
1:35 AM 63.5 °F 62.8 °F 97% 29.95 in 3.0 mi ENE 8.1 mph - 0.04 in Rain Heavy Rain
1:55 AM 63.3 °F 62.8 °F 98% 29.93 in 2.5 mi ENE 9.2 mph - 0.08 in Rain Rain
2:15 AM 63.1 °F 62.8 °F 99% 29.92 in 3.0 mi ESE 6.9 mph - N/A   Mostly Cloudy
2:35 AM 63.1 °F 62.8 °F 99% 29.92 in 3.0 mi ESE 3.5 mph - N/A   Scattered Clouds
2:55 AM 63.0 °F 62.6 °F 99% 29.93 in 3.0 mi SE 3.5 mph - N/A   Mostly Cloudy
3:15 AM 62.8 °F 62.6 °F 99% 29.93 in 3.0 mi ESE 4.6 mph - N/A   Overcast
3:35 AM 62.6 °F 62.2 °F 99% 29.93 in 3.0 mi ESE 4.6 mph - N/A   Overcast
3:55 AM 62.6 °F 62.6 °F 100% 29.94 in 2.5 mi East 4.6 mph - N/A   Overcast
4:15 AM 62.4 °F 61.9 °F 98% 29.93 in 2.5 mi East 4.6 mph - N/A   Mostly Cloudy
4:35 AM 62.1 °F 61.7 °F 99% 29.93 in 2.5 mi East 4.6 mph - N/A   Mostly Cloudy
4:55 AM 62.1 °F 61.7 °F 99% 29.93 in 2.5 mi East 4.6 mph - N/A   Overcast
5:15 AM 61.9 °F 61.5 °F 99% 29.94 in 2.5 mi Calm Calm - N/A   Scattered Clouds
5:35 AM 62.1 °F 61.7 °F 99% 29.95 in 1.8 mi East 3.5 mph - N/A   Overcast
5:55 AM 62.1 °F 61.7 °F 99% 29.95 in 1.2 mi ENE 3.5 mph - N/A   Overcast
6:15 AM 62.6 °F 62.2 °F 99% 29.95 in 1.8 mi ENE 4.6 mph - N/A   Scattered Clouds
6:35 AM 62.6 °F 62.1 °F 98% 29.97 in 1.5 mi ENE 4.6 mph - N/A   Scattered Clouds
6:55 AM 62.6 °F 62.1 °F 98% 29.98 in 1.8 mi NE 5.8 mph - N/A   Mostly Cloudy
7:15 AM 63.0 °F 62.6 °F 99% 29.98 in 1.5 mi ENE 6.9 mph - N/A   Overcast
7:35 AM 63.0 °F 62.6 °F 99% 29.99 in 1.2 mi ENE 9.2 mph - N/A   Overcast
7:55 AM 62.2 °F 61.9 °F 99% 29.99 in 1.2 mi ENE 10.4 mph - N/A   Overcast
8:15 AM 62.1 °F 61.5 °F 98% 29.99 in 1.0 mi ENE 10.4 mph - N/A   Overcast
8:55 AM 64.0 °F 61.9 °F 93% 30.00 in 3.0 mi ENE 6.9 mph - N/A   Mostly Cloudy
9:15 AM 65.5 °F 62.4 °F 90% 30.00 in 5.0 mi ENE 5.8 mph - N/A   Clear
9:35 AM 66.6 °F 62.4 °F 86% 30.00 in 7.0 mi ENE 4.6 mph - N/A   Clear
9:55 AM 67.3 °F 61.9 °F 83% 30.00 in 7.0 mi NE 4.6 mph - N/A   Clear
10:15 AM 68.5 °F 63.3 °F 83% 30.01 in 7.0 mi ENE 5.8 mph - N/A   Clear
10:35 AM 70.5 °F 62.4 °F 75% 30.01 in 10.0 mi East 5.8 mph - N/A   Clear
10:55 AM 71.4 °F 62.4 °F 73% 30.01 in 10.0 mi East 6.9 mph - N/A   Clear
11:15 AM 72.1 °F 62.8 °F 72% 30.01 in 10.0 mi East 6.9 mph - N/A   Clear
11:35 AM 73.2 °F 64.0 °F 73% 30.01 in 10.0 mi East 5.8 mph - N/A   Clear
11:55 AM 73.2 °F 63.0 °F 70% 30.01 in 10.0 mi ENE 9.2 mph - N/A   Scattered Clouds
12:15 PM 73.6 °F 62.8 °F 69% 30.01 in 10.0 mi NE 9.2 mph - N/A   Scattered Clouds
12:35 PM 74.7 °F 62.8 °F 66% 30.00 in 10.0 mi ENE 8.1 mph - N/A   Clear
12:55 PM 75.2 °F 62.6 °F 65% 30.00 in 10.0 mi East 8.1 mph - N/A   Clear
1:15 PM 75.6 °F 61.2 °F 61% 29.99 in 10.0 mi NE 11.5 mph 16.1 mph N/A   Clear
1:35 PM 76.1 °F 60.1 °F 57% 29.99 in 10.0 mi East 9.2 mph - N/A   Clear
1:55 PM 75.9 °F 60.3 °F 58% 29.98 in 10.0 mi ENE 10.4 mph - N/A   Clear
2:15 PM 76.5 °F 60.8 °F 58% 29.97 in 10.0 mi ENE 11.5 mph - N/A   Clear
2:35 PM 77.4 °F 61.2 °F 57% 29.97 in 10.0 mi NE 13.8 mph - N/A   Clear
2:55 PM 76.6 °F 60.1 °F 56% 29.97 in 10.0 mi ENE 11.5 mph - N/A   Clear
3:15 PM 76.8 °F 59.4 °F 55% 29.97 in 10.0 mi NE 12.7 mph 17.3 mph N/A   Clear
3:35 PM 76.3 °F 59.2 °F 55% 29.97 in 10.0 mi ENE 11.5 mph - N/A   Clear
3:55 PM 75.7 °F 58.3 °F 55% 29.97 in 10.0 mi ENE 13.8 mph 18.4 mph N/A   Unknown
4:15 PM 75.0 °F 57.7 °F 55% 29.98 in 10.0 mi ENE 8.1 mph - N/A   Clear
4:35 PM 74.3 °F 56.7 °F 54% 29.99 in 10.0 mi ENE 11.5 mph - N/A   Clear
4:55 PM 73.6 °F 54.9 °F 52% 30.01 in 10.0 mi ENE 13.8 mph - N/A   Clear
5:15 PM 72.1 °F 53.2 °F 51% 30.01 in 10.0 mi East 11.5 mph - N/A   Clear
5:35 PM 72.5 °F 53.8 °F 52% 30.01 in 10.0 mi ENE 12.7 mph - N/A   Clear
5:55 PM 70.9 °F 52.7 °F 53% 30.01 in 10.0 mi ENE 13.8 mph - N/A   Clear
6:15 PM 69.8 °F 52.2 °F 53% 30.01 in 10.0 mi ENE 12.7 mph - N/A   Clear
6:35 PM 68.5 °F 52.7 °F 57% 30.01 in 10.0 mi ENE 10.4 mph - N/A   Clear
6:55 PM 67.5 °F 54.3 °F 63% 30.01 in 10.0 mi ENE 13.8 mph - N/A   Clear
7:15 PM 65.1 °F 56.7 °F 74% 30.03 in 10.0 mi ENE 16.1 mph 20.7 mph N/A   Clear
7:35 PM 61.9 °F 55.8 °F 80% 30.04 in 4.0 mi ENE 11.5 mph - N/A   Haze
7:55 PM 62.1 °F 55.6 °F 79% 30.04 in 5.0 mi NE 11.5 mph 16.1 mph N/A   Haze
8:15 PM 61.0 °F 53.2 °F 76% 30.04 in 10.0 mi ENE 15.0 mph 20.7 mph N/A   Mostly Cloudy
8:35 PM 60.4 °F 52.0 °F 74% 30.04 in 10.0 mi NE 13.8 mph - N/A   Mostly Cloudy
8:55 PM 59.7 °F 52.2 °F 76% 30.05 in 10.0 mi NNE 17.3 mph - N/A   Clear
9:15 PM 59.0 °F 52.0 °F 78% 30.06 in 7.0 mi NE 11.5 mph - N/A   Clear
9:35 PM 59.0 °F 51.8 °F 77% 30.05 in 10.0 mi NE 11.5 mph - N/A   Clear
9:55 PM 58.6 °F 50.4 °F 74% 30.05 in 10.0 mi NE 10.4 mph - N/A   Clear
10:15 PM 58.3 °F 49.6 °F 73% 30.05 in 10.0 mi NE 10.4 mph - N/A   Clear
10:35 PM 59.0 °F 50.0 °F 72% 30.04 in 10.0 mi NE 12.7 mph - N/A   Clear
10:55 PM 58.1 °F 49.5 °F 73% 30.04 in 10.0 mi NE 10.4 mph - N/A   Clear
11:15 PM 57.7 °F 49.1 °F 73% 30.04 in 10.0 mi ENE 10.4 mph - N/A   Clear
11:35 PM 57.7 °F 49.3 °F 73% 30.03 in 10.0 mi NE 11.5 mph - N/A   Clear
11:55 PM 57.2 °F 49.3 °F 75% 30.04 in 10.0 mi NE 6.9 mph - N/A   Clear